WetterOnline ( https://www.wetteronline.ch )

Wetter aktuell Freiburg im Breisgau

Aktuelles Wetter: Freiburg/Flugplatz (236m)

6-stündlich | Neueste Meldungen
Ortszeit Temperatur Wetter
Do, 14.11. 1:00 3.7° C fast wolkenlos
Mi, 13.11. 19:00 5.8° C bewölkt
Mi, 13.11. 13:00 6.3° C bewölkt
Mi, 13.11. 7:00 3.8° C bewölkt
Mi, 13.11. 1:00 4.0° C bewölkt
Di, 12.11. 19:00 6.6° C bedeckt
Di, 12.11. 13:00 7.9° C bedeckt
Di, 12.11. 7:00 5.7° C bewölkt
Ortszeit Temperatur Wetter
Do, 14.11. 4:00 -0.1° C bewölkt
Do, 14.11. 3:50 -0.1° C bewölkt
Do, 14.11. 3:40 0.1° C bedeckt
Do, 14.11. 3:30 0.8° C bedeckt
Do, 14.11. 3:20 0.8° C bedeckt
Do, 14.11. 3:10 2.0° C bedeckt
Do, 14.11. 3:00 0.6° C wolkig
Do, 14.11. 2:30 1.5° C bedeckt
Do, 14.11. 2:00 3.3° C bewölkt
Do, 14.11. 1:30 3.8° C bewölkt
Do, 14.11. 1:00 3.7° C fast wolkenlos
Ortszeit Relative Feuchte Sichtweite
Do, 14.11. 1:00 76% 70 km
Mi, 13.11. 19:00 77% 60 km
Mi, 13.11. 13:00 66% 60 km
Mi, 13.11. 7:00 78% 30 km
Mi, 13.11. 1:00 88% 50 km
Di, 12.11. 19:00 72% 40 km
Di, 12.11. 13:00 60% 50 km
Di, 12.11. 7:00 77% 55 km
Ortszeit Relative Feuchte Sichtweite
Do, 14.11. 4:00 92% 50 km
Do, 14.11. 3:50 92% -
Do, 14.11. 3:40 92% -
Do, 14.11. 3:30 89% 9 km
Do, 14.11. 3:20 89% -
Do, 14.11. 3:10 85% -
Do, 14.11. 3:00 91% 6 km
Do, 14.11. 2:30 82% 45 km
Do, 14.11. 2:00 77% 70 km
Do, 14.11. 1:30 74% 70 km
Do, 14.11. 1:00 76% 70 km
Ortszeit Niederschlagsmenge Niederschlagsart
Do, 14.11. 1:00 0.0 l/m2 in 6 Std. -
Mi, 13.11. 19:00 0.1 l/m2 in 12 Std. -
Mi, 13.11. 13:00 0.1 l/m2 in 6 Std. Regen
Mi, 13.11. 7:00 0.1 l/m2 in 12 Std. Sprühregen
Mi, 13.11. 1:00 0.0 l/m2 in 6 Std. -
Di, 12.11. 19:00 0.1 l/m2 in 12 Std. Regen
Di, 12.11. 13:00 0.0 l/m2 in 6 Std. -
Di, 12.11. 7:00 0.8 l/m2 in 12 Std. Regen
Ortszeit Niederschlagsmenge Niederschlagsart
Do, 14.11. 4:00 0.0 l/m2 in 1 Std. -
Do, 14.11. 3:50 keine Meldung -
Do, 14.11. 3:40 keine Meldung -
Do, 14.11. 3:30 0.0 l/m2 in 1 Std. -
Do, 14.11. 3:20 keine Meldung -
Do, 14.11. 3:10 keine Meldung -
Do, 14.11. 3:00 0.0 l/m2 in 1 Std. -
Do, 14.11. 2:30 0.0 l/m2 in 1 Std. -
Do, 14.11. 2:00 0.0 l/m2 in 1 Std. -
Do, 14.11. 1:30 0.0 l/m2 in 1 Std. -
Do, 14.11. 1:00 0.0 l/m2 in 1 Std. -
Ortszeit Stärke Spitze Richtung
km/h Bft. km/h Grad Sektor
Do, 14.11. 1:00 11 2 29 140° SO
Mi, 13.11. 19:00 18 3 36 220° SW
Mi, 13.11. 13:00 14 3 36 210° SW
Mi, 13.11. 7:00 7 2 18 190° S
Mi, 13.11. 1:00 0 0 18 - -
Di, 12.11. 19:00 7 2 32 250° W
Di, 12.11. 13:00 22 4 47 230° SW
Di, 12.11. 7:00 22 4 37 200° S
Ortszeit Stärke Spitze Richtung
km/h Bft. km/h Grad Sektor
Do, 14.11. 4:00 4 1 7 360° N
Do, 14.11. 3:50 4 1 - 360° N
Do, 14.11. 3:40 4 1 - 360° N
Do, 14.11. 3:30 4 1 7 70° O
Do, 14.11. 3:20 4 1 - 70° O
Do, 14.11. 3:10 4 1 - 120° SO
Do, 14.11. 3:00 4 1 11 90° O
Do, 14.11. 2:30 6 1 9 170° S
Do, 14.11. 2:00 7 2 22 150° SO
Do, 14.11. 1:30 14 3 22 140° SO
Do, 14.11. 1:00 11 2 14 140° SO
Ortszeit Untergrenze Bedeckung Gattung
total tief tief mittel hoch
Do, 14.11. 1:00 7200 m 2/8 0/8 - - -
Mi, 13.11. 19:00 1800 m 7/8 7/8 - - -
Mi, 13.11. 13:00 1440 m 7/8 7/8 - - -
Mi, 13.11. 7:00 990 m 7/8 7/8 - - -
Mi, 13.11. 1:00 960 m 8/8 7/8 - - -
Di, 12.11. 19:00 1170 m 8/8 8/8 - - -
Di, 12.11. 13:00 1050 m 8/8 8/8 - - -
Di, 12.11. 7:00 1500 m 7/8 7/8 - - -
Ortszeit Bedeckungsgrad in Achtel und Wolkenuntergrenze
Do, 14.11. 4:00 7(3900m) 7(5100m) 7(6900m)
Do, 14.11. 3:50 7(3900m) 7(5100m) 7(6900m)
Do, 14.11. 3:40 7(3900m) 8(4500m) 8(5100m)
Do, 14.11. 3:30 8(3900m) 8(4500m) 8(5100m)
Do, 14.11. 3:20 8(3900m) 8(4500m) 8(5100m)
Do, 14.11. 3:10 7(3900m) 8(5100m)
Do, 14.11. 3:00 2(4200m) 5(5100m) 5(6300m)
Do, 14.11. 2:30 8(4200m) 8(6300m)
Do, 14.11. 2:00 6(4500m) 7(5400m) 7(6600m)
Do, 14.11. 1:30 3(5100m) 7(6000m) 8(7200m)
Do, 14.11. 1:00 2(7200m) 5(7200m)
Ortszeit Luftdruck NN (hPa) Tendenz (hPa in 3 Std.)
Do, 14.11. 1:00 1005 - 1,9
Mi, 13.11. 19:00 1007 + 0,5
Mi, 13.11. 13:00 1006 + 0,1
Mi, 13.11. 7:00 1005 + 0,7
Mi, 13.11. 1:00 1005 - 0,2
Di, 12.11. 19:00 1006 - 0,8
Di, 12.11. 13:00 1008 - 1,5
Di, 12.11. 7:00 1010 - 0,5
Ortszeit Luftdruck NN (hPa) Tendenz (hPa in 3 Std.)
Do, 14.11. 4:00 1003 - 2,0
Do, 14.11. 3:50 1003 keine Meldung
Do, 14.11. 3:40 1003 keine Meldung
Do, 14.11. 3:30 1004 - 2,0
Do, 14.11. 3:20 1004 keine Meldung
Do, 14.11. 3:10 1004 keine Meldung
Do, 14.11. 3:00 1004 - 2,0
Do, 14.11. 2:30 1004 - 1,8
Do, 14.11. 2:00 1004 - 2,1
Do, 14.11. 1:30 1004 - 2,2
Do, 14.11. 1:00 1005 - 1,9
Ortszeit Schneehöhe (cm)
Do, 14.11. 1:00 0
Mi, 13.11. 19:00 0
Mi, 13.11. 13:00 0
Mi, 13.11. 7:00 0
Mi, 13.11. 1:00 0
Di, 12.11. 19:00 0
Di, 12.11. 13:00 0
Di, 12.11. 7:00 0
Ortszeit Schneehöhe (cm)
Do, 14.11. 4:00 0
Do, 14.11. 3:50 0
Do, 14.11. 3:40 0
Do, 14.11. 3:30 0
Do, 14.11. 3:20 0
Do, 14.11. 3:10 0
Do, 14.11. 3:00 0
Do, 14.11. 2:30 0
Do, 14.11. 2:00 0
Do, 14.11. 1:30 0
Do, 14.11. 1:00 0
Link zu dieser Seite / Seite empfehlen

Das Wetter in ...